Weather History for KPYM - April, 2014

Change the Weather History Date:

Saturday, April 26, 2014

  Actual Average Record
Temperature  
Mean Temperature 42 °F -  
Max Temperature 46 °F 57 °F 78 °F (1982)
Min Temperature 39 °F 36 °F 23 °F (1967)
Degree Days  
Heating Degree Days 22    
Moisture  
Dew Point 37 °F    
Average Humidity 76    
Maximum Humidity 89    
Minimum Humidity 61    
Precipitation  
Precipitation 0.07 in - - ()
Sea Level Pressure  
Sea Level Pressure 29.82 in    
Wind  
Wind Speed 5 mph (NE)    
Max Wind Speed 9 mph    
Max Gust Speed -    
Visibility 10 miles    
Events Rain    
Averages and records for this station are not official NWS values.
T = Trace of Precipitation, MM = Missing Value Source: NWS Daily Summary

Daily Weather History Graph

Daily Weather History Graph

Search for Another Location

Airport or City:

Trip Planner

Search our weather history database for the weather conditions in past years. The results will help you decide how hot, cold, wet, or windy it might be!

Date:

Astronomy

Apr. 26, 2014 Rise Set
Actual Time 5:46 AM EDT 7:36 PM EDT
Civil Twilight 5:16 AM EDT 8:06 PM EDT
Nautical Twilight 4:39 AM EDT 8:42 PM EDT
Astronomical Twilight 4:00 AM EDT 9:21 PM EDT
Moon 4:11 AM EDT (4/26) 4:58 PM EDT (4/26)
Length of Visible Light 14h 49m
Length of Day
13h 50m
Waning Crescent, 8% of the Moon is Illuminated
Apr 26
Waning Crescent
Apr 29
New
May 6
First Quarter
May 14
Full
May 21
Last Quarter

Hourly Weather History & Observations

Time (EDT) Temp. Windchill Dew Point Humidity Pressure Visibility Wind Dir Wind Speed Gust Speed Precip Events Conditions
12:52 AM 44.1 °F 41.5 °F 36.0 °F 73% 29.87 in 10.0 mi SSW 4.6 mph - N/A   Clear
1:52 AM 44.1 °F 40.8 °F 36.0 °F 73% 29.85 in 10.0 mi SSW 5.8 mph - N/A   Partly Cloudy
2:52 AM 43.0 °F 41.3 °F 36.0 °F 76% 29.82 in 10.0 mi SE 3.5 mph - N/A   Mostly Cloudy
3:52 AM 42.1 °F 39.2 °F 35.1 °F 76% 29.80 in 10.0 mi ESE 4.6 mph - N/A   Clear
4:52 AM 44.1 °F 42.5 °F 35.1 °F 71% 29.80 in 10.0 mi SE 3.5 mph - N/A   Clear
5:52 AM 43.0 °F - 35.1 °F 74% 29.80 in 10.0 mi Calm Calm - N/A   Partly Cloudy
6:52 AM 45.0 °F 43.5 °F 35.1 °F 68% 29.81 in 10.0 mi NNE 3.5 mph - N/A   Overcast
7:52 AM 46.0 °F 43.9 °F 34.0 °F 63% 29.81 in 10.0 mi ENE 4.6 mph - N/A   Overcast
8:52 AM 46.0 °F 43.1 °F 33.1 °F 61% 29.81 in 10.0 mi NE 5.8 mph - N/A   Overcast
9:52 AM 44.1 °F 40.1 °F 36.0 °F 73% 29.81 in 9.0 mi NE 6.9 mph - 0.00 in Rain Light Rain
10:52 AM 44.1 °F 40.1 °F 39.0 °F 82% 29.81 in 5.0 mi ENE 6.9 mph - 0.01 in Rain Light Rain
11:52 AM 44.1 °F 40.1 °F 39.0 °F 82% 29.80 in 8.0 mi NE 6.9 mph - 0.02 in Rain Light Rain
12:52 PM 45.0 °F 40.6 °F 39.0 °F 80% 29.78 in 8.0 mi ENE 8.1 mph - 0.02 in Rain Light Rain
1:52 PM 45.0 °F 40.1 °F 39.0 °F 80% 29.78 in 10.0 mi East 9.2 mph - 0.01 in Rain Light Rain
2:52 PM 44.1 °F 39.5 °F 37.9 °F 79% 29.77 in 10.0 mi NE 8.1 mph - 0.01 in   Overcast
3:52 PM 44.1 °F 39.0 °F 37.9 °F 79% 29.80 in 10.0 mi NE 9.2 mph - N/A   Overcast
4:52 PM 45.0 °F 41.8 °F 37.9 °F 76% 29.80 in 10.0 mi North 5.8 mph - N/A   Overcast
5:52 PM 45.0 °F 42.6 °F 37.0 °F 74% 29.81 in 10.0 mi NNW 4.6 mph - N/A   Overcast
6:52 PM 44.1 °F 41.5 °F 37.9 °F 79% 29.83 in 10.0 mi North 4.6 mph - N/A   Overcast
7:52 PM 44.1 °F 41.5 °F 37.9 °F 79% 29.84 in 10.0 mi NE 4.6 mph - N/A   Overcast
8:52 PM 43.0 °F 40.3 °F 37.0 °F 80% 29.86 in 10.0 mi North 4.6 mph - N/A   Overcast
9:52 PM 41.0 °F 39.0 °F 36.0 °F 82% 29.86 in 10.0 mi NE 3.5 mph - N/A   Clear
10:52 PM 39.0 °F - 36.0 °F 89% 29.87 in 10.0 mi Calm Calm - N/A   Mostly Cloudy
11:52 PM 41.0 °F 38.0 °F 37.0 °F 86% 29.88 in 10.0 mi East 4.6 mph - N/A   Overcast